AirNav   Phillips 66 Aviation Fuel
 
 595 users online  

S72 St Maries Municipal Airport
St Maries, Idaho, USA

GOING TO ST MARIES?


FAA INFORMATION EFFECTIVE 11 OCTOBER 2018

Location

FAA Identifier: S72
Lat/Long: 47-19-32.9200N / 116-34-36.0400W
47-19.548667N / 116-34.600667W
47.3258111 / -116.5766778
(estimated)
Elevation: 2131.3 ft. / 649.6 m (surveyed)
Variation: 15E (2010)
From city: 1 mile NW of ST MARIES, ID
Time zone: UTC -7 (UTC -8 during Standard Time)
Zip code: 83861

Airport Operations

Airport use: Open to the public
Activation date: 04/1940
Control tower: no
ARTCC: SEATTLE CENTER
FSS: BOISE FLIGHT SERVICE STATION
NOTAMs facility: BOI (NOTAM-D service available)
Attendance: UNATNDD
Wind indicator: lighted
Segmented circle: yes
Lights: ACTVT MIRL RWY 10/28 - CTAF.
Beacon: white-green (lighted land airport)
Operates sunset to sunrise.

Airport Communications

CTAF/UNICOM: 122.8

Nearby radio navigation aids

VOR radial/distance  VOR name  Freq  Var
COEr141/28.6COEUR D'ALENE VOR/DME108.8019E
MLPr243/38.6MULLAN PASS VOR/DME117.8015E

Airport Services

Fuel available: 100LL
Parking: tiedowns
Airframe service: MINOR
Powerplant service: MINOR
Bottled oxygen: NONE
Bulk oxygen: NONE

Runway Information

Runway 10/28

Dimensions: 3354 x 60 ft. / 1022 x 18 m
Surface: asphalt, in good condition
Weight bearing capacity: 
Single wheel: 12.5
Runway edge lights: medium intensity
NSTD MIRL FIRST 715 FT WEST END NOT LIGHTED.
Runway edge markings: NSTD DSPLCD THLD MARKING YELLOW CHEVRONS.
RUNWAY 10  RUNWAY 28
Latitude: 47-19.666000N47-19.431333N
Longitude: 116-34.967833W116-34.233500W
Elevation: 2131.3 ft.2126.3 ft.
Gradient: 0.1%0.1%
Traffic pattern: rightleft
Markings: basic, in good conditionbasic, in good condition
Runway end identifier lights: no
Touchdown point: yes, no lightsyes, no lights
Obstructions: 45 ft. road, 600 ft. from runway, 165 ft. right of centerline, 8:1 slope to clear
DSPLCD FOR 45' ROAD AT 0';30 FT R; 23:1 FM DSPLCD THLD.
45 ft. trees, 1700 ft. from runway, 33:1 slope to clear
ADDNL OBSTNS +50' PLINE AT 2000', ON CNTRLN +4' FENCE AT 275' ON CNTRLN, +1000' RIDGE AT 1 1/2 MILES, ON CNTRLN.

Airport Ownership and Management from official FAA records

Ownership: Publicly-owned
Owner: BENEWAH COUNTY
BENEWAH COUNTY COURTHOUSE
ST MARIES, ID 83861
Phone 208-245-2234
Manager: DALE PRITCHARD
P O BOX 264
ST MARIES, ID 83861
Phone 208-582-0941

Airport Operational Statistics

Aircraft based on the field: 26
Single engine airplanes: 23
Multi engine airplanes: 3
    
Aircraft operations: avg 36/day *
64% transient general aviation
36% local general aviation
* for 12-month period ending 19 August 2016

Additional Remarks

RY 28 HAS 200 FT STOPWAY.

Instrument Procedures

There are no published instrument procedures at S72.

Some nearby airports with instrument procedures:

KCOE - Coeur d'Alene Airport - Pappy Boyington Field (29 nm N)
KSFF - Felts Field Airport (37 nm NW)
KPUW - Pullman/Moscow Regional Airport (41 nm SW)
KGEG - Spokane International Airport (43 nm NW)
KSKA - Fairchild Air Force Base (47 nm W)
 
Loc | Ops | Rwys | IFR | FBO | Links
Com | Nav | Svcs | Stats | Notes


 
Area around S72 (St Maries Municipal Airport)
 
Road maps at: MapQuest Bing Google
 
Aerial photo
WARNING: Photo may not be current or correct
Aerial photo of S72 (St Maries Municipal Airport)
Photo by Colin FitzGerald
Photo taken 26-Nov-2011
looking east.

Do you have a better or more recent aerial photo of St Maries Municipal Airport that you would like to share? If so, please send us your photo.

 
Sectional chart

 
Airport distance calculator
Flying to St Maries Municipal Airport? Find the distance to fly.

From to S72

Sunrise and sunset
Times for 21-Oct-2018
 Local
(UTC-7)
 Zulu
(UTC)
Morning civil twilight06:4313:43
Sunrise07:1514:15
Sunset17:4700:47
Evening civil twilight18:1901:19

Current date and time
Zulu (UTC)  21-Oct-2018 12:10:02
Local (UTC-7)  21-Oct-2018 05:10:02
 
METAR
KCOE 
28nm N 
211156Z AUTO 06008KT 10SM CLR 05/02 A3009 RMK AO2 SLP208 6//// 7//// T00500022 10072 20033 57003 PNO $
KSFF 
37nm NW 
211153Z AUTO 04003KT 9SM CLR 02/01 A3009 RMK AO2 SLP189 T00220011 10072 20022 56003
KMLP 
38nm E 
211153Z AUTO 21003KT 10SM CLR 11/M12 A3016 RMK AO2 SLP132 T01111117 10117 20094 56006
KPUW 
41nm SW 
211153Z AUTO 07006KT 9SM CLR 10/00 A3006 RMK AO2 SLP173 T01000000 10106 20072 56005
KGEG 
43nm NW 
211153Z 07008KT 10SM FEW070 FEW200 07/02 A3007 RMK AO2 SLP182 T00670017 10072 20050 56003
KSKA 
47nm W 
211158Z 05005KT 10SM CLR 04/02 A3007 RMK AO2A SLP187 T00410021 10092 20037 57003 $
TAF
KCOE 
28nm N 
211131Z 2112/2212 07008KT P6SM FEW250 FM211400 04010KT P6SM FEW250 FM211900 03005KT P6SM FEW250
NOTAMs
Click for the latest NOTAMs
NOTAMs are issued by the DoD/FAA and will open in a separate window not controlled by AirNav.

 

 
 

FBO, Fuel Providers, and Aircraft Ground Support

  
 Business Name 
 
 Contact 
 
 Services / Description 
 
Fuel Prices
 
Comments
  
St Maries Municipal Airport 208-582-0941
no information available

If you are affiliated with St Maries Municipal Airport and would like to show here your services, contact info, web link, logo, and more, click here
100LL
SS $4.55 
 Updated 01-Jul-2018
 
   write
SS=Self service
Update Fuel Prices
 

Would you like to see your business listed on this page?

 If your business provides an interesting product or service to pilots, flight crews, aircraft, or users of the St Maries Municipal Airport, you should consider listing it here.  To start the listing process, click on the button below
 
Add a business
 

Other Pages about St Maries Municipal Airport

Update a link
 
Copyright © AirNav, LLC. All rights reserved. Privacy Policy  Contact